• In Uzbekistan
  • List of Countries
  • For 7 days
  • Water Temperature
  • Satellite Maps
  • Weather Map
  • Weather Widgets
  • user-avatar
    Login

    Hourly Weather Kara

    Today, 21 October, Sunday

    Time Temperature Precipitation Wind Pressure Humidity
    00:00 +10°C° 0 mm 1 mps 636 mmHg 56%
    01:00 +10°C° 0 mm 1 mps 636 mmHg 55%
    02:00 +10°C° 0 mm 1 mps 636 mmHg 54%
    03:00 +9°C° 0 mm 1 mps 636 mmHg 53%
    04:00 +9°C° 0 mm 1 mps 635 mmHg 51%
    05:00 +9°C° 0 mm 1 mps 635 mmHg 49%
    06:00 +9°C° 0 mm 1 mps 635 mmHg 47%
    07:00 +11°C° 0 mm 1 mps 636 mmHg 43%
    08:00 +13°C° 0 mm 1 mps 637 mmHg 39%
    09:00 +14°C° 0 mm 0 mps 638 mmHg 35%
    10:00 +16°C° 0 mm 1 mps 638 mmHg 36%
    11:00 +16°C° 0 mm 1 mps 638 mmHg 37%
    12:00 +17°C° 0 mm 2 mps 638 mmHg 38%
    13:00 +17°C° 0 mm 2 mps 638 mmHg 42%
    14:00 +17°C° 0 mm 2 mps 638 mmHg 46%
    15:00 +16°C° 0 mm 2 mps 638 mmHg 50%
    16:00 +14°C° 0 mm 1 mps 637 mmHg 60%
    17:00 +13°C° 0 mm 1 mps 637 mmHg 70%
    18:00 +10°C° 0 mm 0 mps 637 mmHg 80%
    19:00 +11°C° 0 mm 1 mps 637 mmHg 78%
    20:00 +11°C° 0 mm 1 mps 637 mmHg 77%
    21:00 +10°C° 0 mm 1 mps 637 mmHg 75%
    22:00 +10°C° 0 mm 1 mps 637 mmHg 74%
    23:00 +10°C° 0 mm 1 mps 637 mmHg 73%

    Tomorrow, 22 October, Monday

    Time Temperature Precipitation Wind Pressure Humidity
    00:00 +10°C° 0 mm 1 mps 637 mmHg 71%
    01:00 +10°C° 0 mm 1 mps 636 mmHg 69%
    02:00 +10°C° 0 mm 1 mps 636 mmHg 68%
    03:00 +10°C° 0 mm 1 mps 636 mmHg 66%
    04:00 +10°C° 0 mm 1 mps 636 mmHg 64%
    05:00 +10°C° 0 mm 1 mps 636 mmHg 63%
    06:00 +10°C° 0 mm 1 mps 636 mmHg 61%
    07:00 +11°C° 0 mm 1 mps 637 mmHg 56%
    08:00 +13°C° 0 mm 1 mps 638 mmHg 52%
    09:00 +15°C° 0 mm 1 mps 638 mmHg 47%
    10:00 +15°C° 0 mm 2 mps 639 mmHg 47%
    11:00 +16°C° 0 mm 2 mps 639 mmHg 46%
    12:00 +17°C° 0 mm 2 mps 639 mmHg 46%
    13:00 +16°C° 0.1 mm 2 mps 639 mmHg 51%
    14:00 +16°C° 0.1 mm 2 mps 638 mmHg 55%
    15:00 +15°C° 0.1 mm 2 mps 638 mmHg 60%
    16:00 +14°C° 0.1 mm 1 mps 638 mmHg 69%
    17:00 +13°C° 0.1 mm 1 mps 638 mmHg 77%
    18:00 +11°C° 0.1 mm 1 mps 638 mmHg 86%
    19:00 +11°C° 0.1 mm 1 mps 638 mmHg 87%
    20:00 +10°C° 0.1 mm 0 mps 638 mmHg 89%
    21:00 +9°C° 0.1 mm 0 mps 638 mmHg 90%
    22:00 +10°C° 0 mm 1 mps 638 mmHg 89%
    23:00 +10°C° 0 mm 1 mps 638 mmHg 88%

    Day after tomorrow, 23 October, Tuesday

    Time Temperature Precipitation Wind Pressure Humidity
    00:00 +10°C° 0 mm 1 mps 637 mmHg 86%
    01:00 +9°C° 0 mm 1 mps 637 mmHg 84%
    02:00 +9°C° 0 mm 1 mps 637 mmHg 81%
    03:00 +9°C° 0 mm 1 mps 637 mmHg 79%
    04:00 +9°C° 0 mm 1 mps 637 mmHg 76%
    05:00 +9°C° 0 mm 1 mps 637 mmHg 74%
    06:00 +9°C° 0 mm 1 mps 636 mmHg 71%
    07:00 +10°C° 0 mm 1 mps 637 mmHg 66%
    08:00 +12°C° 0 mm 1 mps 638 mmHg 60%
    09:00 +14°C° 0 mm 1 mps 638 mmHg 55%
    10:00 +14°C° 0 mm 1 mps 638 mmHg 54%
    11:00 +15°C° 0 mm 2 mps 638 mmHg 54%
    12:00 +16°C° 0 mm 2 mps 638 mmHg 54%
    13:00 +16°C° 0.1 mm 2 mps 638 mmHg 57%
    14:00 +15°C° 0.1 mm 2 mps 637 mmHg 60%
    15:00 +15°C° 0.1 mm 2 mps 637 mmHg 64%
    16:00 +13°C° 0.2 mm 1 mps 637 mmHg 71%
    17:00 +12°C° 0.2 mm 1 mps 636 mmHg 78%
    18:00 +11°C° 0.2 mm 1 mps 636 mmHg 85%
    19:00 +11°C° 0 mm 1 mps 636 mmHg 84%
    20:00 +10°C° 0 mm 1 mps 636 mmHg 82%
    21:00 +10°C° 0 mm 1 mps 635 mmHg 80%
    22:00 +10°C° 0 mm 1 mps 635 mmHg 77%
    23:00 +10°C° 0 mm 1 mps 635 mmHg 74%

    24 October, Wednesday

    Time Temperature Precipitation Wind Pressure Humidity
    00:00 +9°C° 0 mm 2 mps 635 mmHg 70%
    01:00 +8°C° 0 mm 2 mps 634 mmHg 69%
    02:00 +8°C° 0 mm 2 mps 634 mmHg 67%
    03:00 +8°C° 0 mm 2 mps 634 mmHg 65%
    04:00 +8°C° 0 mm 2 mps 634 mmHg 66%
    05:00 +8°C° 0 mm 2 mps 634 mmHg 67%
    06:00 +8°C° 0 mm 2 mps 633 mmHg 68%
    07:00 +9°C° 0 mm 2 mps 634 mmHg 64%
    08:00 +12°C° 0 mm 2 mps 634 mmHg 59%
    09:00 +14°C° 0 mm 2 mps 635 mmHg 55%
    10:00 +15°C° 0 mm 2 mps 634 mmHg 53%
    11:00 +16°C° 0 mm 2 mps 634 mmHg 50%
    12:00 +16°C° 0 mm 3 mps 634 mmHg 47%
    13:00 +16°C° 0 mm 3 mps 633 mmHg 48%
    14:00 +16°C° 0 mm 3 mps 633 mmHg 49%
    15:00 +16°C° 0 mm 3 mps 632 mmHg 50%
    16:00 +13°C° 0 mm 3 mps 632 mmHg 55%
    17:00 +12°C° 0 mm 3 mps 631 mmHg 60%
    18:00 +10°C° 0 mm 2 mps 630 mmHg 66%
    19:00 +10°C° 0 mm 3 mps 630 mmHg 63%
    20:00 +10°C° 0 mm 3 mps 630 mmHg 61%
    21:00 +10°C° 0 mm 3 mps 629 mmHg 59%
    22:00 +10°C° 0 mm 3 mps 629 mmHg 59%
    23:00 +10°C° 0 mm 4 mps 628 mmHg 59%

    25 October, Thursday

    Time Temperature Precipitation Wind Pressure Humidity
    00:00 +10°C° 0 mm 4 mps 627 mmHg 60%
    01:00 +10°C° 0 mm 4 mps 627 mmHg 60%
    02:00 +10°C° 0 mm 4 mps 626 mmHg 60%
    03:00 +10°C° 0 mm 4 mps 626 mmHg 60%
    04:00 +10°C° 0 mm 4 mps 626 mmHg 60%
    05:00 +10°C° 0 mm 4 mps 625 mmHg 61%
    06:00 +10°C° 0 mm 4 mps 625 mmHg 62%
    07:00 +11°C° 0 mm 4 mps 626 mmHg 57%
    08:00 +13°C° 0 mm 4 mps 626 mmHg 52%
    09:00 +15°C° 0 mm 4 mps 627 mmHg 47%
    10:00 +17°C° 0 mm 4 mps 627 mmHg 44%
    11:00 +19°C° 0 mm 4 mps 627 mmHg 41%
    12:00 +20°C° 0 mm 4 mps 627 mmHg 37%
    13:00 +19°C° 0 mm 4 mps 627 mmHg 38%
    14:00 +19°C° 0 mm 4 mps 627 mmHg 40%
    15:00 +19°C° 0 mm 4 mps 627 mmHg 41%
    16:00 +15°C° 0 mm 4 mps 627 mmHg 49%
    17:00 +13°C° 0 mm 3 mps 626 mmHg 57%
    18:00 +11°C° 0 mm 3 mps 626 mmHg 65%
    19:00 +11°C° 0 mm 3 mps 627 mmHg 67%
    20:00 +10°C° 0 mm 3 mps 627 mmHg 69%
    21:00 +10°C° 0 mm 3 mps 627 mmHg 71%
    22:00 +9°C° 0 mm 3 mps 627 mmHg 74%
    23:00 +9°C° 0 mm 3 mps 627 mmHg 77%

    26 October, Friday

    Time Temperature Precipitation Wind Pressure Humidity
    00:00 +8°C° 0 mm 3 mps 628 mmHg 80%
    01:00 +8°C° 0 mm 3 mps 628 mmHg 82%
    02:00 +7°C° 0 mm 3 mps 628 mmHg 83%
    03:00 +7°C° 0 mm 3 mps 628 mmHg 84%
    04:00 +7°C° 0 mm 3 mps 628 mmHg 85%
    05:00 +7°C° 0 mm 3 mps 629 mmHg 85%
    06:00 +7°C° 0 mm 3 mps 629 mmHg 85%
    07:00 +6°C° 0.1 mm 4 mps 630 mmHg 84%
    08:00 +6°C° 0.1 mm 4 mps 630 mmHg 82%
    09:00 +6°C° 0.1 mm 4 mps 631 mmHg 80%
    10:00 +7°C° 0.1 mm 4 mps 631 mmHg 77%
    11:00 +7°C° 0.1 mm 4 mps 631 mmHg 74%
    12:00 +7°C° 0.1 mm 4 mps 632 mmHg 71%
    13:00 +7°C° 0.1 mm 4 mps 632 mmHg 72%
    14:00 +6°C° 0.1 mm 4 mps 632 mmHg 73%
    15:00 +6°C° 0.1 mm 4 mps 632 mmHg 74%
    16:00 +5°C° 0.6 mm 3 mps 632 mmHg 78%
    17:00 +5°C° 0.6 mm 2 mps 632 mmHg 82%
    18:00 +4°C° 0.6 mm 2 mps 632 mmHg 86%
    19:00 +4°C° 2.2 mm 2 mps 633 mmHg 88%
    20:00 +5°C° 2.2 mm 1 mps 633 mmHg 90%
    21:00 +4°C° 2.2 mm 1 mps 633 mmHg 91%
    22:00 +4°C° 1.3 mm 1 mps 633 mmHg 92%
    23:00 +5°C° 1.3 mm 1 mps 634 mmHg 92%
    Show more